QPF
0.08 0.07 0.06 0.05 0.04 0.03 0.02 0.01 0.02 0.04 0.03 0.03 0.03 0.04 0.04 0.04 0.04 0.04 0.05 0.05 0.05 0.05 0.06 0.07 0.07 0.06 0.05 0.04 0.04 0.04 0.04 0.04 0.04 0.04 0.04 0.05 0.04 0.04 0.04 0.04 0.04 0.03 0.03
0.06 0.07 0.07 0.05 0.04 0.03 0.03 0.03 0.04 0.04 0.04 0.04 0.04 0.05 0.04 0.04 0.03 0.04 0.05 0.06 0.06 0.06 0.07 0.06 0.05 0.04 0.05 0.05 0.05 0.04 0.03 0.03 0.04 0.05 0.05 0.04 0.06 0.06 0.06 0.07 0.05 0.03 0.03
0.02 0.02 0.03 0.03 0.03 0.03 0.03 0.04 0.04 0.04 0.05 0.05 0.06 0.05 0.03 0.03 0.04 0.06 0.05 0.07 0.08 0.07 0.07 0.07 0.04 0.04 0.04 0.05 0.05 0.04 0.04 0.03 0.04 0.05 0.05 0.04 0.05 0.06 0.06 0.06 0.05 0.03 0.02
0.01 0.01 0.01 0.02 0.03 0.03 0.04 0.05 0.05 0.05 0.05 0.05 0.04 0.04 0.03 0.03 0.03 0.05 0.06 0.07 0.09 0.09 0.08 0.06 0.06 0.05 0.04 0.04 0.04 0.03 0.04 0.04 0.05 0.06 0.04 0.04 0.03 0.04 0.05 0.04 0.05 0.04 0.02
0.01 0.01 0.01 0.02 0.02 0.02 0.04 0.04 0.03 0.02 0.02 0.02 0.02 0.03 0.03 0.04 0.04 0.06 0.08 0.09 0.09 0.08 0.08 0.06 0.07 0.05 0.04 0.06 0.05 0.04 0.05 0.07 0.09 0.07 0.04 0.04 0.03 0.04 0.05 0.03 0.05 0.04 0.03
0.01 0.01 0.02 0.03 0.02 0.02 0.03 0.02 0.02 0.02 0.02 0.02 0.02 0.03 0.02 0.03 0.04 0.05 0.08 0.10 0.09 0.09 0.09 0.08 0.07 0.07 0.08 0.09 0.07 0.06 0.07 0.08 0.07 0.05 0.05 0.04 0.02 0.03 0.03 0.04 0.04 0.04 0.03
0.02 0.02 0.02 0.03 0.02 0.02 0.02 0.01 0.02 0.02 0.02 0.02 0.02 0.02 0.02 0.02 0.03 0.05 0.09 0.11 0.10 0.10 0.09 0.10 0.11 0.08 0.06 0.04 0.04 0.04 0.03 0.04 0.03 0.03 0.04 0.03 0.02 0.03 0.03 0.03 0.03 0.03 0.04
0.02 0.01 0.02 0.02 0.02 0.03 0.02 0.01 0.01 0.02 0.02 0.02 0.02 0.02 0.03 0.03 0.04 0.05 0.08 0.08 0.07 0.06 0.04 0.06 0.08 0.05 0.03 0.03 0.03 0.03 0.03 0.03 0.02 0.04 0.07 0.04 0.03 0.03 0.03 0.04 0.03 0.03 0.04
0.02 0.02 0.03 0.03 0.03 0.03 0.01 0.01 0.01 0.02 0.02 0.03 0.02 0.02 0.04 0.05 0.06 0.06 0.07 0.06 0.07 0.05 0.03 0.03 0.04 0.04 0.03 0.03 0.02 0.02 0.03 0.02 0.03 0.05 0.06 0.04 0.03 0.03 0.03 0.04 0.05 0.05 0.04
0.02 0.02 0.03 0.03 0.04 0.03 0.02 0.02 0.02 0.02 0.03 0.06 0.07 0.07 0.09 0.08 0.06 0.06 0.07 0.07 0.08 0.05 0.03 0.03 0.04 0.05 0.05 0.04 0.02 0.03 0.02 0.02 0.03 0.03 0.04 0.04 0.04 0.04 0.04 0.05 0.06 0.05 0.04
0.02 0.03 0.03 0.03 0.04 0.03 0.03 0.03 0.04 0.04 0.04 0.05 0.08 0.09 0.08 0.04 0.04 0.04 0.05 0.06 0.07 0.06 0.06 0.06 0.06 0.08 0.09 0.07 0.05 0.04 0.03 0.02 0.02 0.02 0.03 0.03 0.05 0.05 0.05 0.07 0.06 0.05 0.04
0.06 0.06 0.06 0.05 0.03 0.03 0.04 0.05 0.06 0.07 0.07 0.06 0.05 0.05 0.05 0.05 0.04 0.04 0.07 0.11 0.12 0.10 0.08 0.08 0.09 0.11 0.12 0.08 0.06 0.06 0.03 0.03 0.04 0.03 0.02 0.03 0.05 0.05 0.06 0.06 0.05 0.04 0.06
0.10 0.08 0.06 0.05 0.03 0.04 0.07 0.08 0.07 0.07 0.09 0.10 0.09 0.06 0.05 0.06 0.06 0.05 0.07 0.12 0.13 0.12 0.10 0.10 0.12 0.11 0.15 0.16 0.11 0.06 0.03 0.04 0.05 0.05 0.04 0.04 0.05 0.07 0.08 0.07 0.05 0.04 0.06
0.09 0.06 0.04 0.04 0.03 0.03 0.06 0.07 0.07 0.06 0.09 0.13 0.13 0.06 0.05 0.05 0.04 0.04 0.05 0.08 0.09 0.09 0.09 0.10 0.14 0.16 0.16 0.13 0.07 0.07 0.05 0.03 0.05 0.05 0.05 0.06 0.08 0.08 0.09 0.09 0.07 0.07 0.08
0.05 0.06 0.04 0.03 0.01 0.02 0.02 0.02 0.03 0.04 0.05 0.06 0.05 0.04 0.05 0.04 0.04 0.05 0.05 0.06 0.06 0.07 0.08 0.08 0.10 0.15 0.12 0.06 0.04 0.05 0.04 0.03 0.05 0.06 0.06 0.07 0.07 0.07 0.09 0.12 0.13 0.14 0.14
0.03 0.03 0.02 0.02 0.01 0.01 0.01 0.02 0.02 0.03 0.03 0.04 0.04 0.04 0.04 0.04 0.05 0.07 0.06 0.06 0.07 0.08 0.09 0.08 0.08 0.10 0.07 0.04 0.04 0.04 0.04 0.04 0.05 0.08 0.09 0.07 0.07 0.08 0.09 0.10 0.11 0.12 0.15
0.02 0.02 0.01 0.01 0.02 0.02 0.01 0.01 0.02 0.02 0.02 0.05 0.04 0.03 0.03 0.04 0.05 0.06 0.07 0.07 0.07 0.07 0.08 0.08 0.07 0.06 0.04 0.03 0.04 0.03 0.04 0.05 0.07 0.08 0.08 0.06 0.05 0.06 0.07 0.08 0.08 0.08 0.10
0.03 0.02 0.01 0.01 0.02 0.03 0.02 0.01 0.01 0.01 0.02 0.03 0.04 0.06 0.05 0.05 0.06 0.09 0.09 0.09 0.10 0.10 0.11 0.10 0.08 0.09 0.08 0.04 0.04 0.04 0.06 0.05 0.06 0.05 0.05 0.05 0.06 0.05 0.05 0.06 0.07 0.08 0.07
0.02 0.02 0.02 0.02 0.03 0.03 0.03 0.02 0.02 0.01 0.02 0.03 0.03 0.04 0.04 0.05 0.04 0.06 0.12 0.13 0.12 0.13 0.14 0.12 0.10 0.08 0.08 0.06 0.06 0.06 0.05 0.06 0.06 0.04 0.05 0.05 0.05 0.04 0.05 0.06 0.09 0.09 0.08
0.01 0.03 0.01 0.01 0.01 0.02 0.03 0.03 0.03 0.02 0.01 0.02 0.03 0.04 0.04 0.05 0.04 0.05 0.07 0.08 0.08 0.09 0.08 0.07 0.07 0.06 0.05 0.04 0.06 0.11 0.06 0.08 0.08 0.05 0.06 0.07 0.05 0.05 0.05 0.05 0.06 0.08 0.11
0.00 0.01 0.01 0.00 0.01 0.01 0.03 0.03 0.02 0.02 0.02 0.02 0.04 0.05 0.06 0.05 0.05 0.06 0.06 0.05 0.05 0.05 0.04 0.04 0.05 0.05 0.04 0.03 0.06 0.08 0.06 0.06 0.07 0.06 0.07 0.08 0.08 0.05 0.05 0.05 0.05 0.05 0.07
0.01 0.01 0.01 0.01 0.01 0.01 0.03 0.03 0.02 0.01 0.01 0.03 0.06 0.07 0.06 0.05 0.05 0.04 0.05 0.05 0.04 0.04 0.03 0.03 0.04 0.04 0.03 0.04 0.07 0.08 0.06 0.04 0.05 0.09 0.11 0.10 0.09 0.08 0.06 0.04 0.04 0.04 0.04
0.01 0.01 0.01 0.02 0.03 0.04 0.04 0.04 0.02 0.02 0.01 0.01 0.02 0.03 0.05 0.05 0.05 0.04 0.04 0.04 0.04 0.03 0.04 0.03 0.02 0.02 0.02 0.04 0.05 0.07 0.06 0.05 0.05 0.06 0.09 0.10 0.10 0.09 0.07 0.06 0.04 0.03 0.03
0.02 0.02 0.03 0.04 0.05 0.05 0.04 0.05 0.04 0.03 0.01 0.01 0.00 0.01 0.02 0.03 0.04 0.03 0.03 0.03 0.03 0.04 0.04 0.03 0.03 0.03 0.02 0.02 0.03 0.04 0.05 0.06 0.05 0.04 0.05 0.06 0.07 0.06 0.05 0.04 0.03 0.03 0.03
0.02 0.02 0.03 0.03 0.04 0.05 0.06 0.06 0.06 0.05 0.02 0.02 0.01 0.01 0.01 0.02 0.02 0.03 0.04 0.04 0.04 0.04 0.04 0.04 0.04 0.04 0.04 0.03 0.03 0.04 0.05 0.05 0.04 0.03 0.03 0.03 0.04 0.04 0.04 0.04 0.03 0.03 0.04
0.01 0.01 0.01 0.01 0.03 0.08 0.09 0.08 0.06 0.04 0.02 0.02 0.02 0.02 0.01 0.01 0.02 0.02 0.03 0.05 0.04 0.04 0.05 0.04 0.04 0.05 0.05 0.05 0.04 0.03 0.04 0.04 0.04 0.04 0.03 0.03 0.04 0.05 0.06 0.06 0.04 0.03 0.03
MSLP
1003.23 1002.29 1001.65 1001.32 1001.20 1001.19 1001.14 1000.96 1000.59 1000.06 999.45 998.89 998.49 998.35 998.50 998.93 999.56 1000.30 1001.06 1001.77 1002.40 1002.96 1003.51 1004.07 1004.69 1005.38 1006.11 1006.86 1007.57 1008.22 1008.79 1009.28 1009.72 1010.14 1010.56 1010.99 1011.44 1011.89 1012.30 1012.67 1012.98 1013.24 1013.47
1002.63 1001.84 1001.33 1001.08 1001.00 1000.95 1000.80 1000.46 999.90 999.17 998.39 997.71 997.24 997.10 997.29 997.80 998.53 999.37 1000.23 1001.03 1001.75 1002.39 1003.00 1003.63 1004.32 1005.06 1005.84 1006.62 1007.37 1008.03 1008.62 1009.13 1009.58 1010.02 1010.46 1010.92 1011.39 1011.86 1012.29 1012.67 1012.99 1013.26 1013.51
1002.02 1001.39 1001.02 1000.87 1000.82 1000.73 1000.47 999.97 999.22 998.31 997.36 996.55 996.01 995.84 996.06 996.62 997.43 998.37 999.32 1000.22 1001.03 1001.77 1002.47 1003.17 1003.92 1004.72 1005.55 1006.37 1007.13 1007.82 1008.43 1008.96 1009.44 1009.90 1010.37 1010.86 1011.36 1011.84 1012.28 1012.68 1013.01 1013.30 1013.56
1001.46 1000.99 1000.75 1000.69 1000.66 1000.51 1000.14 999.47 998.54 997.45 996.34 995.41 994.79 994.59 994.82 995.42 996.29 997.31 998.36 999.36 1000.28 1001.12 1001.92 1002.72 1003.55 1004.41 1005.28 1006.12 1006.91 1007.62 1008.24 1008.80 1009.31 1009.81 1010.31 1010.83 1011.35 1011.85 1012.31 1012.71 1013.06 1013.36 1013.65
1001.04 1000.70 1000.56 1000.54 1000.50 1000.28 999.77 998.95 997.85 996.59 995.35 994.31 993.64 993.40 993.63 994.27 995.19 996.28 997.42 998.52 999.54 1000.50 1001.41 1002.31 1003.22 1004.14 1005.06 1005.93 1006.74 1007.46 1008.10 1008.67 1009.21 1009.74 1010.28 1010.83 1011.37 1011.89 1012.36 1012.77 1013.13 1013.44 1013.74
1000.82 1000.57 1000.48 1000.47 1000.36 1000.04 999.40 998.42 997.17 995.78 994.43 993.33 992.61 992.37 992.60 993.26 994.22 995.37 996.58 997.78 998.90 999.97 1000.99 1001.99 1002.98 1003.96 1004.91 1005.81 1006.63 1007.35 1008.01 1008.60 1009.16 1009.71 1010.28 1010.85 1011.41 1011.94 1012.42 1012.83 1013.19 1013.52 1013.84
1000.84 1000.63 1000.55 1000.48 1000.28 999.83 999.05 997.93 996.56 995.08 993.68 992.55 991.83 991.60 991.85 992.53 993.52 994.70 995.97 997.22 998.43 999.59 1000.70 1001.78 1002.83 1003.86 1004.84 1005.75 1006.57 1007.30 1007.96 1008.55 1009.12 1009.69 1010.27 1010.86 1011.43 1011.96 1012.44 1012.86 1013.23 1013.57 1013.90
1001.12 1000.90 1000.77 1000.61 1000.29 999.70 998.79 997.57 996.13 994.62 993.22 992.11 991.43 991.22 991.50 992.19 993.19 994.38 995.66 996.94 998.19 999.39 1000.55 1001.69 1002.79 1003.85 1004.84 1005.75 1006.57 1007.29 1007.93 1008.52 1009.09 1009.66 1010.25 1010.83 1011.40 1011.93 1012.41 1012.83 1013.21 1013.55 1013.89
1001.59 1001.35 1001.15 1000.89 1000.44 999.73 998.71 997.43 995.97 994.48 993.14 992.11 991.50 991.34 991.64 992.33 993.31 994.46 995.70 996.96 998.19 999.39 1000.57 1001.71 1002.82 1003.89 1004.88 1005.78 1006.59 1007.29 1007.92 1008.49 1009.05 1009.60 1010.17 1010.74 1011.30 1011.82 1012.30 1012.72 1013.10 1013.46 1013.81
1002.20 1001.93 1001.66 1001.30 1000.75 999.95 998.88 997.58 996.16 994.76 993.52 992.60 992.07 991.97 992.29 992.95 993.86 994.94 996.09 997.27 998.43 999.58 1000.71 1001.83 1002.92 1003.97 1004.95 1005.83 1006.62 1007.30 1007.91 1008.46 1008.99 1009.52 1010.05 1010.60 1011.13 1011.65 1012.12 1012.55 1012.94 1013.31 1013.67
1002.86 1002.57 1002.26 1001.83 1001.22 1000.37 999.30 998.05 996.72 995.45 994.35 993.55 993.11 993.06 993.36 993.97 994.79 995.74 996.77 997.81 998.87 999.92 1000.98 1002.04 1003.09 1004.10 1005.05 1005.91 1006.67 1007.34 1007.92 1008.44 1008.93 1009.42 1009.92 1010.43 1010.94 1011.43 1011.90 1012.34 1012.74 1013.13 1013.51
1003.48 1003.21 1002.88 1002.43 1001.80 1000.97 999.96 998.81 997.62 996.50 995.55 994.88 994.52 994.49 994.76 995.28 995.97 996.78 997.64 998.54 999.46 1000.40 1001.36 1002.34 1003.33 1004.30 1005.21 1006.05 1006.79 1007.43 1007.99 1008.48 1008.94 1009.38 1009.83 1010.30 1010.77 1011.24 1011.70 1012.15 1012.57 1012.97 1013.37
1004.02 1003.77 1003.46 1003.03 1002.45 1001.69 1000.79 999.79 998.77 997.82 997.02 996.45 996.15 996.12 996.32 996.73 997.28 997.93 998.64 999.39 1000.17 1000.99 1001.86 1002.76 1003.69 1004.61 1005.49 1006.30 1007.02 1007.64 1008.17 1008.63 1009.05 1009.44 1009.84 1010.26 1010.69 1011.13 1011.58 1012.03 1012.46 1012.88 1013.29
1004.44 1004.24 1003.97 1003.59 1003.09 1002.45 1001.70 1000.88 1000.05 999.26 998.61 998.12 997.85 997.78 997.90 998.19 998.60 999.11 999.68 1000.30 1000.98 1001.71 1002.50 1003.34 1004.21 1005.08 1005.93 1006.71 1007.41 1008.01 1008.51 1008.94 1009.31 1009.65 1010.00 1010.35 1010.74 1011.15 1011.57 1012.01 1012.45 1012.87 1013.28
1004.74 1004.57 1004.35 1004.05 1003.65 1003.17 1002.59 1001.97 1001.32 1000.70 1000.17 999.75 999.47 999.35 999.39 999.56 999.85 1000.24 1000.71 1001.26 1001.87 1002.55 1003.29 1004.09 1004.91 1005.75 1006.56 1007.31 1007.98 1008.56 1009.03 1009.42 1009.75 1010.04 1010.32 1010.61 1010.94 1011.30 1011.69 1012.11 1012.53 1012.94 1013.33
1004.94 1004.79 1004.61 1004.38 1004.10 1003.77 1003.39 1002.96 1002.50 1002.03 1001.59 1001.22 1000.93 1000.75 1000.70 1000.79 1000.99 1001.31 1001.74 1002.26 1002.86 1003.52 1004.25 1005.02 1005.82 1006.61 1007.38 1008.09 1008.73 1009.27 1009.71 1010.06 1010.34 1010.57 1010.79 1011.01 1011.27 1011.57 1011.91 1012.28 1012.66 1013.04 1013.40
1005.08 1004.92 1004.75 1004.59 1004.42 1004.24 1004.04 1003.80 1003.52 1003.19 1002.84 1002.50 1002.20 1001.97 1001.86 1001.87 1002.03 1002.32 1002.75 1003.29 1003.92 1004.61 1005.34 1006.10 1006.87 1007.62 1008.33 1008.99 1009.58 1010.07 1010.48 1010.79 1011.02 1011.19 1011.34 1011.49 1011.66 1011.88 1012.15 1012.45 1012.78 1013.11 1013.42
1005.18 1004.98 1004.81 1004.69 1004.62 1004.58 1004.55 1004.49 1004.37 1004.17 1003.91 1003.60 1003.29 1003.03 1002.87 1002.85 1002.99 1003.30 1003.76 1004.35 1005.02 1005.75 1006.49 1007.24 1007.97 1008.67 1009.32 1009.92 1010.44 1010.89 1011.24 1011.51 1011.69 1011.81 1011.88 1011.95 1012.04 1012.16 1012.33 1012.55 1012.80 1013.06 1013.31
1005.25 1005.01 1004.82 1004.73 1004.73 1004.81 1004.93 1005.03 1005.06 1004.99 1004.81 1004.54 1004.24 1003.96 1003.78 1003.75 1003.90 1004.23 1004.74 1005.38 1006.10 1006.86 1007.62 1008.34 1009.02 1009.65 1010.22 1010.74 1011.20 1011.59 1011.90 1012.12 1012.26 1012.32 1012.33 1012.32 1012.30 1012.32 1012.38 1012.50 1012.65 1012.84 1013.02
1005.32 1005.03 1004.82 1004.73 1004.79 1004.97 1005.21 1005.45 1005.62 1005.66 1005.57 1005.36 1005.08 1004.81 1004.63 1004.60 1004.76 1005.12 1005.67 1006.34 1007.09 1007.86 1008.60 1009.28 1009.89 1010.44 1010.93 1011.37 1011.76 1012.09 1012.36 1012.55 1012.65 1012.66 1012.61 1012.51 1012.40 1012.30 1012.25 1012.25 1012.30 1012.41 1012.53
1005.35 1005.03 1004.81 1004.73 1004.83 1005.08 1005.42 1005.78 1006.06 1006.22 1006.22 1006.07 1005.83 1005.58 1005.41 1005.38 1005.55 1005.92 1006.48 1007.16 1007.90 1008.64 1009.33 1009.95 1010.48 1010.94 1011.34 1011.70 1012.04 1012.33 1012.56 1012.73 1012.80 1012.78 1012.66 1012.49 1012.28 1012.07 1011.90 1011.79 1011.75 1011.77 1011.84
1005.32 1005.02 1004.79 1004.73 1004.86 1005.15 1005.57 1006.01 1006.40 1006.65 1006.74 1006.66 1006.48 1006.26 1006.10 1006.08 1006.24 1006.60 1007.13 1007.77 1008.47 1009.15 1009.76 1010.29 1010.73 1011.10 1011.43 1011.73 1012.01 1012.27 1012.49 1012.64 1012.70 1012.65 1012.50 1012.26 1011.96 1011.65 1011.38 1011.16 1011.02 1010.96 1010.98
1005.22 1004.96 1004.76 1004.72 1004.86 1005.19 1005.65 1006.16 1006.62 1006.96 1007.12 1007.12 1006.99 1006.82 1006.68 1006.65 1006.78 1007.10 1007.57 1008.14 1008.75 1009.34 1009.86 1010.30 1010.65 1010.94 1011.20 1011.46 1011.71 1011.95 1012.17 1012.32 1012.38 1012.31 1012.13 1011.84 1011.47 1011.08 1010.71 1010.40 1010.17 1010.05 1010.02
1005.01 1004.83 1004.68 1004.66 1004.82 1005.17 1005.65 1006.19 1006.70 1007.11 1007.35 1007.41 1007.35 1007.22 1007.10 1007.06 1007.16 1007.41 1007.80 1008.28 1008.78 1009.26 1009.68 1010.02 1010.30 1010.52 1010.74 1010.96 1011.19 1011.44 1011.66 1011.82 1011.88 1011.81 1011.61 1011.28 1010.87 1010.42 1009.97 1009.58 1009.29 1009.10 1009.03
1004.69 1004.60 1004.52 1004.54 1004.72 1005.07 1005.55 1006.11 1006.66 1007.11 1007.41 1007.54 1007.54 1007.46 1007.36 1007.32 1007.38 1007.56 1007.86 1008.23 1008.62 1008.99 1009.31 1009.57 1009.77 1009.95 1010.13 1010.33 1010.56 1010.80 1011.03 1011.19 1011.26 1011.19 1010.98 1010.64 1010.21 1009.72 1009.22 1008.78 1008.43 1008.18 1008.06
1004.26 1004.28 1004.27 1004.33 1004.53 1004.88 1005.36 1005.92 1006.48 1006.97 1007.33 1007.53 1007.58 1007.55 1007.48 1007.44 1007.47 1007.59 1007.80 1008.07 1008.36 1008.63 1008.86 1009.05 1009.20 1009.33 1009.48 1009.66 1009.88 1010.12 1010.34 1010.50 1010.57 1010.51 1010.30 1009.96 1009.52 1009.02 1008.51 1008.04 1007.64 1007.35 1007.16
Thickness
5788 5791 5791 5791 5791 5790 5789 5789 5788 5787 5787 5786 5786 5785 5783 5782 5781 5779 5777 5776 5774 5773 5772 5771 5770 5769 5768 5768 5767 5766 5765 5764 5764 5763 5763 5762 5761 5760 5760 5760 5759 5758 5757
5794 5793 5792 5791 5790 5790 5789 5789 5788 5787 5786 5785 5784 5783 5782 5781 5780 5779 5777 5775 5774 5772 5771 5770 5769 5768 5768 5767 5766 5765 5764 5763 5763 5762 5762 5761 5760 5760 5759 5759 5758 5757 5756
5796 5794 5793 5791 5790 5789 5789 5788 5787 5787 5786 5785 5784 5783 5782 5781 5779 5778 5776 5774 5773 5772 5771 5770 5768 5768 5767 5766 5765 5764 5763 5763 5762 5761 5761 5760 5760 5759 5758 5758 5757 5756 5755
5797 5794 5792 5791 5790 5789 5788 5788 5787 5786 5785 5784 5783 5782 5781 5780 5778 5777 5775 5774 5772 5771 5770 5769 5768 5767 5766 5765 5764 5763 5763 5762 5762 5761 5760 5759 5759 5758 5758 5757 5756 5755 5754
5796 5794 5792 5790 5789 5788 5787 5786 5786 5785 5784 5783 5782 5781 5780 5779 5778 5776 5774 5773 5772 5770 5769 5769 5768 5767 5765 5765 5764 5763 5763 5762 5762 5761 5760 5759 5759 5758 5758 5757 5756 5755 5753
5795 5793 5792 5790 5789 5787 5786 5785 5784 5784 5783 5782 5781 5780 5779 5778 5777 5775 5774 5772 5771 5770 5769 5768 5767 5766 5765 5765 5764 5763 5763 5763 5762 5761 5760 5760 5759 5758 5758 5757 5756 5755 5754
5795 5793 5792 5790 5789 5787 5786 5785 5784 5783 5782 5781 5780 5779 5778 5777 5776 5775 5774 5773 5771 5770 5769 5768 5767 5766 5765 5764 5764 5764 5763 5763 5762 5761 5761 5760 5759 5758 5758 5756 5756 5754 5754
5796 5793 5791 5790 5788 5787 5785 5784 5783 5782 5781 5780 5780 5778 5777 5776 5775 5774 5773 5772 5771 5770 5769 5768 5767 5766 5765 5765 5764 5764 5763 5763 5762 5762 5761 5760 5760 5759 5758 5757 5756 5754 5753
5795 5793 5791 5789 5788 5787 5785 5784 5783 5781 5780 5780 5779 5778 5776 5775 5774 5774 5773 5772 5771 5770 5769 5768 5767 5766 5765 5765 5764 5764 5763 5763 5762 5761 5761 5760 5760 5759 5758 5757 5756 5754 5753
5793 5791 5790 5788 5787 5786 5785 5783 5782 5781 5779 5778 5778 5777 5775 5774 5774 5773 5773 5772 5771 5770 5769 5768 5767 5766 5765 5765 5764 5763 5763 5762 5762 5761 5761 5760 5759 5759 5758 5757 5756 5755 5754
5790 5789 5789 5787 5786 5785 5784 5783 5781 5780 5778 5777 5776 5775 5774 5773 5773 5772 5772 5772 5771 5770 5769 5768 5767 5767 5765 5764 5763 5763 5762 5761 5761 5761 5761 5760 5759 5759 5758 5757 5756 5755 5754
5786 5787 5788 5787 5785 5784 5783 5782 5781 5779 5777 5776 5775 5774 5773 5773 5772 5772 5772 5771 5771 5770 5770 5769 5768 5767 5766 5764 5763 5762 5762 5761 5761 5761 5761 5760 5760 5759 5758 5757 5757 5756 5754
5788 5787 5787 5787 5785 5784 5782 5781 5779 5777 5776 5775 5774 5774 5773 5772 5771 5771 5771 5770 5770 5770 5769 5769 5768 5767 5766 5764 5763 5762 5761 5761 5761 5761 5761 5761 5760 5760 5759 5758 5757 5756 5755
5789 5788 5788 5787 5785 5784 5782 5781 5779 5776 5774 5773 5773 5773 5772 5771 5770 5770 5770 5769 5769 5768 5768 5768 5767 5766 5765 5764 5763 5762 5761 5761 5761 5760 5760 5760 5760 5760 5759 5758 5757 5756 5755
5789 5788 5788 5788 5786 5784 5782 5780 5778 5775 5773 5773 5772 5772 5771 5770 5769 5768 5768 5768 5767 5767 5767 5766 5766 5765 5764 5763 5763 5762 5761 5760 5760 5760 5760 5760 5760 5760 5759 5757 5756 5755 5754
5789 5788 5788 5787 5785 5783 5781 5779 5777 5775 5773 5772 5771 5770 5770 5769 5767 5766 5766 5765 5765 5765 5765 5765 5764 5763 5762 5762 5761 5761 5760 5760 5759 5759 5759 5759 5759 5758 5758 5757 5756 5754 5753
5789 5788 5787 5786 5784 5783 5781 5779 5777 5775 5772 5770 5769 5769 5768 5767 5766 5765 5764 5763 5763 5763 5763 5763 5762 5761 5760 5760 5759 5759 5759 5759 5758 5758 5758 5757 5757 5756 5756 5755 5755 5753 5753
5790 5787 5786 5786 5783 5781 5780 5778 5776 5774 5772 5770 5768 5768 5766 5765 5764 5763 5762 5761 5761 5761 5761 5759 5758 5757 5756 5756 5756 5756 5757 5757 5757 5757 5756 5755 5754 5754 5753 5753 5753 5752 5752
5790 5787 5785 5784 5781 5780 5778 5777 5775 5773 5771 5769 5767 5766 5765 5763 5762 5761 5760 5759 5759 5758 5757 5757 5755 5754 5752 5753 5753 5754 5755 5754 5754 5755 5754 5753 5752 5752 5751 5750 5750 5750 5749
5791 5788 5784 5782 5780 5778 5776 5774 5772 5770 5769 5767 5766 5765 5764 5762 5761 5760 5758 5757 5756 5754 5753 5752 5751 5751 5750 5750 5751 5751 5751 5752 5752 5752 5752 5751 5750 5749 5748 5748 5747 5746 5746
5789 5785 5782 5779 5777 5775 5772 5769 5766 5764 5764 5763 5763 5762 5761 5760 5759 5757 5755 5754 5753 5750 5749 5749 5748 5746 5746 5747 5744 5743 5746 5748 5749 5750 5749 5748 5748 5747 5746 5745 5744 5744 5743
5786 5783 5781 5778 5775 5774 5771 5769 5766 5764 5762 5761 5760 5759 5758 5757 5756 5755 5753 5751 5750 5748 5746 5745 5744 5742 5742 5743 5739 5734 5732 5736 5742 5747 5746 5745 5745 5744 5743 5743 5741 5741 5740
5785 5783 5781 5777 5775 5773 5771 5767 5764 5761 5759 5757 5756 5755 5755 5754 5753 5752 5751 5749 5747 5745 5743 5742 5741 5739 5736 5738 5738 5733 5726 5724 5731 5738 5741 5741 5741 5740 5740 5740 5739 5738 5738
5786 5784 5780 5777 5774 5772 5769 5765 5760 5756 5752 5752 5753 5753 5752 5752 5751 5749 5748 5746 5744 5742 5741 5740 5739 5737 5735 5732 5733 5734 5732 5730 5725 5725 5731 5735 5737 5736 5736 5737 5737 5736 5735
5787 5783 5780 5776 5773 5770 5768 5764 5759 5755 5753 5752 5751 5750 5749 5748 5748 5746 5745 5743 5741 5739 5738 5737 5736 5734 5732 5730 5728 5728 5728 5727 5726 5722 5720 5725 5729 5732 5733 5733 5733 5732 5731
5785 5782 5778 5774 5770 5769 5766 5762 5758 5754 5751 5749 5747 5745 5745 5744 5744 5743 5742 5740 5738 5736 5734 5733 5732 5731 5729 5727 5726 5725 5724 5722 5720 5719 5717 5718 5720 5724 5727 5728 5728 5727 5727